When you browse on this site, cookies collect data to enhance your experience and personalize the content and advertising you see.
Visit our Privacy Policy to learn more. By continuing to use the site, you agree to this use of cookies and data.
  • In Spain
  • List of Countries
  • For 7 days
  • Water Temperature
  • Weather Map
  • Weather Widgets
  • user-avatar
    Login

    Hourly Weather La Laja

    Today, 1 June, Monday

    Time Temperature Precipitation Wind Pressure Humidity
    00:00 +5°C° 0 mm 1 mps 757 mmHg 78%
    01:00 +4°C° 0 mm 0 mps 757 mmHg 79%
    02:00 +4°C° 0 mm 0 mps 757 mmHg 80%
    03:00 +3°C° 0 mm 0 mps 757 mmHg 81%
    04:00 +3°C° 0 mm 0 mps 757 mmHg 82%
    05:00 +3°C° 0 mm 0 mps 757 mmHg 83%
    06:00 +3°C° 0 mm 0 mps 758 mmHg 84%
    07:00 +3°C° 0 mm 0 mps 758 mmHg 84%
    08:00 +6°C° 0 mm 1 mps 758 mmHg 74%
    09:00 +9°C° 0 mm 1 mps 758 mmHg 64%
    10:00 +11°C° 0 mm 1 mps 759 mmHg 54%
    11:00 +13°C° 0 mm 1 mps 758 mmHg 50%
    12:00 +14°C° 0 mm 1 mps 758 mmHg 46%
    13:00 +15°C° 0 mm 0 mps 758 mmHg 42%
    14:00 +14°C° 0 mm 0 mps 758 mmHg 47%
    15:00 +13°C° 0 mm 0 mps 758 mmHg 52%
    16:00 +12°C° 0 mm 0 mps 758 mmHg 57%
    17:00 +10°C° 0 mm 0 mps 758 mmHg 63%
    18:00 +9°C° 0 mm 0 mps 758 mmHg 69%
    19:00 +8°C° 0 mm 0 mps 758 mmHg 75%
    20:00 +7°C° 0 mm 0 mps 758 mmHg 78%
    21:00 +7°C° 0 mm 0 mps 758 mmHg 82%
    22:00 +6°C° 0 mm 0 mps 758 mmHg 86%
    23:00 +6°C° 0 mm 0 mps 758 mmHg 87%

    Tomorrow, 2 June, Tuesday

    Time Temperature Precipitation Wind Pressure Humidity
    00:00 +6°C° 0 mm 0 mps 757 mmHg 88%
    01:00 +6°C° 0 mm 0 mps 757 mmHg 89%
    02:00 +6°C° 0 mm 0 mps 757 mmHg 90%
    03:00 +6°C° 0 mm 0 mps 756 mmHg 91%
    04:00 +6°C° 0 mm 0 mps 756 mmHg 91%
    05:00 +8°C° 0 mm 1 mps 756 mmHg 92%
    06:00 +8°C° 0 mm 1 mps 756 mmHg 93%
    07:00 +8°C° 0 mm 1 mps 755 mmHg 94%
    08:00 +9°C° 0.5 mm 1 mps 755 mmHg 91%
    09:00 +11°C° 0.5 mm 1 mps 755 mmHg 88%
    10:00 +12°C° 0.5 mm 2 mps 754 mmHg 85%
    11:00 +12°C° 1.6 mm 1 mps 754 mmHg 88%
    12:00 +12°C° 1.6 mm 1 mps 754 mmHg 92%
    13:00 +12°C° 1.6 mm 1 mps 753 mmHg 95%
    14:00 +12°C° 0.3 mm 1 mps 753 mmHg 94%
    15:00 +12°C° 0.3 mm 1 mps 753 mmHg 93%
    16:00 +12°C° 0.3 mm 1 mps 752 mmHg 92%
    17:00 +11°C° 0.2 mm 1 mps 753 mmHg 94%
    18:00 +10°C° 0.2 mm 1 mps 753 mmHg 95%
    19:00 +9°C° 0.2 mm 1 mps 753 mmHg 97%
    20:00 +8°C° 0 mm 1 mps 753 mmHg 97%
    21:00 +8°C° 0 mm 1 mps 753 mmHg 96%
    22:00 +7°C° 0 mm 1 mps 753 mmHg 96%
    23:00 +7°C° 0 mm 1 mps 753 mmHg 94%

    Day after tomorrow, 3 June, Wednesday

    Time Temperature Precipitation Wind Pressure Humidity
    00:00 +8°C° 0 mm 1 mps 753 mmHg 93%
    01:00 +7°C° 0 mm 2 mps 753 mmHg 91%
    02:00 +7°C° 0 mm 2 mps 753 mmHg 91%
    03:00 +7°C° 0 mm 2 mps 753 mmHg 91%
    04:00 +7°C° 0 mm 2 mps 754 mmHg 91%
    05:00 +7°C° 0 mm 2 mps 754 mmHg 91%
    06:00 +5°C° 0 mm 3 mps 754 mmHg 91%
    07:00 +5°C° 0 mm 3 mps 754 mmHg 91%
    08:00 +7°C° 0 mm 3 mps 755 mmHg 83%
    09:00 +8°C° 0 mm 4 mps 755 mmHg 75%
    10:00 +11°C° 0 mm 4 mps 755 mmHg 67%
    11:00 +12°C° 0 mm 4 mps 755 mmHg 61%
    12:00 +13°C° 0 mm 4 mps 755 mmHg 55%
    13:00 +14°C° 0 mm 4 mps 755 mmHg 48%
    14:00 +13°C° 0 mm 3 mps 755 mmHg 52%
    15:00 +13°C° 0 mm 3 mps 755 mmHg 56%
    16:00 +13°C° 0 mm 2 mps 755 mmHg 59%
    17:00 +10°C° 0 mm 2 mps 755 mmHg 66%
    18:00 +9°C° 0 mm 2 mps 756 mmHg 72%
    19:00 +8°C° 0 mm 1 mps 756 mmHg 78%
    20:00 +8°C° 0 mm 1 mps 756 mmHg 80%
    21:00 +7°C° 0 mm 1 mps 756 mmHg 81%
    22:00 +7°C° 0 mm 1 mps 757 mmHg 83%
    23:00 +6°C° 0 mm 1 mps 756 mmHg 84%

    4 June, Thursday

    Time Temperature Precipitation Wind Pressure Humidity
    00:00 +6°C° 0 mm 1 mps 756 mmHg 85%
    01:00 +4°C° 0 mm 0 mps 756 mmHg 87%
    02:00 +4°C° 0 mm 0 mps 756 mmHg 87%
    03:00 +4°C° 0 mm 0 mps 756 mmHg 88%
    04:00 +3°C° 0 mm 0 mps 756 mmHg 88%
    05:00 +3°C° 0 mm 0 mps 757 mmHg 89%
    06:00 +3°C° 0 mm 0 mps 757 mmHg 90%
    07:00 +2°C° 0 mm 0 mps 757 mmHg 91%
    08:00 +5°C° 0 mm 0 mps 757 mmHg 80%
    09:00 +7°C° 0 mm 0 mps 758 mmHg 70%
    10:00 +10°C° 0 mm 0 mps 758 mmHg 59%
    11:00 +11°C° 0 mm 0 mps 758 mmHg 55%
    12:00 +13°C° 0 mm 0 mps 757 mmHg 50%
    13:00 +14°C° 0 mm 0 mps 757 mmHg 46%
    14:00 +13°C° 0 mm 0 mps 757 mmHg 51%
    15:00 +12°C° 0 mm 0 mps 758 mmHg 55%
    16:00 +11°C° 0 mm 0 mps 758 mmHg 60%
    17:00 +10°C° 0 mm 0 mps 758 mmHg 67%
    18:00 +8°C° 0 mm 0 mps 759 mmHg 74%
    19:00 +8°C° 0 mm 1 mps 759 mmHg 81%
    20:00 +6°C° 0 mm 0 mps 759 mmHg 83%
    21:00 +6°C° 0 mm 0 mps 759 mmHg 85%
    22:00 +6°C° 0 mm 0 mps 759 mmHg 88%
    23:00 +6°C° 0 mm 0 mps 759 mmHg 88%

    5 June, Friday

    Time Temperature Precipitation Wind Pressure Humidity
    00:00 +5°C° 0 mm 0 mps 759 mmHg 89%
    01:00 +5°C° 0 mm 0 mps 759 mmHg 90%
    02:00 +5°C° 0 mm 0 mps 759 mmHg 91%
    03:00 +5°C° 0 mm 0 mps 758 mmHg 93%
    04:00 +5°C° 0 mm 0 mps 758 mmHg 94%
    05:00 +5°C° 0 mm 0 mps 758 mmHg 95%
    06:00 +5°C° 0 mm 0 mps 758 mmHg 95%
    07:00 +4°C° 0 mm 0 mps 758 mmHg 95%
    08:00 +6°C° 0 mm 0 mps 757 mmHg 88%
    09:00 +10°C° 0 mm 1 mps 757 mmHg 80%
    10:00 +12°C° 0 mm 1 mps 757 mmHg 73%
    11:00 +13°C° 0 mm 1 mps 756 mmHg 69%
    12:00 +14°C° 0 mm 2 mps 756 mmHg 66%
    13:00 +15°C° 0 mm 2 mps 755 mmHg 62%
    14:00 +14°C° 0 mm 2 mps 755 mmHg 67%
    15:00 +13°C° 0 mm 2 mps 755 mmHg 71%
    16:00 +12°C° 0 mm 2 mps 755 mmHg 75%
    17:00 +10°C° 0 mm 2 mps 754 mmHg 82%
    18:00 +10°C° 0 mm 1 mps 754 mmHg 88%
    19:00 +9°C° 0 mm 1 mps 754 mmHg 95%
    20:00 +8°C° 0 mm 1 mps 754 mmHg 95%
    21:00 +8°C° 0 mm 1 mps 754 mmHg 96%
    22:00 +8°C° 0 mm 1 mps 753 mmHg 96%
    23:00 +8°C° 0 mm 1 mps 753 mmHg 96%

    6 June, Saturday

    Time Temperature Precipitation Wind Pressure Humidity
    00:00 +8°C° 0 mm 1 mps 753 mmHg 96%
    01:00 +8°C° 0 mm 1 mps 752 mmHg 96%
    02:00 +7°C° 0 mm 2 mps 752 mmHg 95%
    03:00 +8°C° 0 mm 2 mps 751 mmHg 94%
    04:00 +8°C° 0 mm 2 mps 751 mmHg 94%
    05:00 +8°C° 0 mm 3 mps 751 mmHg 92%
    06:00 +8°C° 0 mm 4 mps 750 mmHg 90%
    07:00 +8°C° 0 mm 4 mps 750 mmHg 87%
    08:00 +8°C° 1.5 mm 5 mps 750 mmHg 88%
    09:00 +9°C° 1.5 mm 5 mps 751 mmHg 89%
    10:00 +9°C° 1.5 mm 6 mps 751 mmHg 90%
    11:00 +9°C° 2.8 mm 5 mps 752 mmHg 89%
    12:00 +10°C° 2.8 mm 4 mps 752 mmHg 88%
    13:00 +8°C° 2.8 mm 4 mps 753 mmHg 87%
    14:00 +9°C° 0.3 mm 3 mps 754 mmHg 86%
    15:00 +9°C° 0.3 mm 2 mps 755 mmHg 84%
    16:00 +9°C° 0.3 mm 2 mps 756 mmHg 83%
    17:00 +9°C° 0 mm 1 mps 757 mmHg 85%
    18:00 +8°C° 0 mm 1 mps 758 mmHg 88%
    19:00 +7°C° 0 mm 1 mps 759 mmHg 91%
    20:00 +6°C° 0 mm 1 mps 759 mmHg 91%
    21:00 +5°C° 0 mm 0 mps 759 mmHg 92%
    22:00 +5°C° 0 mm 0 mps 760 mmHg 92%
    23:00 +4°C° 0 mm 0 mps 760 mmHg 92%
    Show more